Location: Newark
(46.7000°N, 60.6000°W)
Time: 14:30:33
(UTC+00:00)

A-11 Canister half - Pass Details

Date: 08 November 2020
Orbit: 1516 x 1684 km, 47.2° (Epoch: 03 December)

Event Time Altitude Azimuth Distance (km) Brightness Sun altitude
Rises 00:50:01 0° 275° (W) 4,938 12.4 -42.9°
Reaches altitude 10° 00:53:12 10° 276° (W) 3,945 11.7 -43.4°
Enters shadow 01:00:46 57° 279° (W) 1,915 9.5 -44.6°
